Terminal Aerodrome Forecast
Issued by NWS

Home | Current Version | Previous Version | Text Only | Print | Product List | Glossary On
Versions: 1 2 3 4 5 6 7 8 9 10 11 12 13 14 15 16 17 18
000
FTAK31 PAJN 132336
TAFAGY
TAF
PAGY 132336Z 1400/1424 20010G20KT 6SM RA FEW001 BKN010 OVC025
     FM140600 20010KT 6SM -RA BR OVC020
     FM141900 21015G25KT P6SM -RA OVC025
      AMD LTD TO CLD VIS AND WIND=

USA.gov is the U.S. government's official web portal to all federal, state and local government web resources and services.